Change the Weather History Date:

Friday, February 8, 2013

  Actual Average Record
Temperature  
Mean Temperature 55 °F 49 °F  
Max Temperature 64 °F 61 °F 82 °F (1957)
Min Temperature 46 °F 37 °F 18 °F (1933)
Degree Days  
Heating Degree Days 10 16  
Month to date heating degree days 136 135  
Since 1 July heating degree days 1350 1640  
Cooling Degree Days 0 0  
Month to date cooling degree days 0 0  
Year to date cooling degree days 18 1  
Growing Degree Days 5 (Base 50)    
Moisture  
Dew Point 46 °F    
Average Humidity 80    
Maximum Humidity 100    
Minimum Humidity 60    
Precipitation  
Precipitation 0.00 in 0.16 in 1.79 in (1959)
Month to date precipitation 2.25 1.22  
Year to date precipitation 4.30 5.46  
Snow  
Snow 0.00 in 0.00 in 0.00 in (2002)
Month to date snowfall 0.0 0.0  
Since 1 July snowfall 0.0 0.5  
Snow Depth -    
Sea Level Pressure  
Sea Level Pressure 30.01 in    
Wind  
Wind Speed 6 mph (NW)    
Max Wind Speed 15 mph    
Max Gust Speed 18 mph    
Visibility 9 miles    
Events      
T = Trace of Precipitation, MM = Missing Value Source: NWS Daily Summary

Daily Weather History Graph

Daily Weather History Graph

Search for Another Location

Airport or City:

Trip Planner

Search our weather history database for the weather conditions in past years. The results will help you decide how hot, cold, wet, or windy it might be!

Date:

Astronomy

Feb. 08, 2013 Rise Set
Actual Time 7:23 AM EST 6:14 PM EST
Civil Twilight 6:58 AM EST 6:39 PM EST
Nautical Twilight 6:29 AM EST 7:08 PM EST
Astronomical Twilight 6:00 AM EST 7:37 PM EST
Moon 5:49 AM EST (2/8) 4:48 PM EST (2/8)
Length of Visible Light 11h 41m
Length of Day
10h 50m
Waning Crescent, 3% of the Moon is Illuminated
Feb 8
Waning Crescent
Feb 10
New
Feb 17
First Quarter
Feb 25
Full
Mar 4
Last Quarter

Hourly Weather History & Observations

Time (EST) Temp. Windchill Dew Point Humidity Pressure Visibility Wind Dir Wind Speed Gust Speed Precip Events Conditions
12:53 AM 46.9 °F - 46.0 °F 97% 29.95 in 10.0 mi North 8.1 mph - N/A   Overcast
1:53 AM 46.9 °F - 45.0 °F 93% 29.95 in 10.0 mi North 5.8 mph - N/A   Overcast
2:53 AM 46.9 °F - 45.0 °F 93% 29.94 in 10.0 mi North 6.9 mph - N/A   Overcast
3:19 AM 46.4 °F 42.9 °F 44.6 °F 93% 29.94 in 10.0 mi NNE 6.9 mph - N/A   Overcast
3:53 AM 46.0 °F 43.9 °F 44.1 °F 93% 29.94 in 10.0 mi North 4.6 mph - N/A   Overcast
4:22 AM 46.4 °F - 44.6 °F 93% 29.94 in 10.0 mi Calm Calm - N/A   Overcast
4:53 AM 46.0 °F - 45.0 °F 96% 29.96 in 10.0 mi Calm Calm - N/A   Overcast
5:19 AM 46.4 °F 45.2 °F 44.6 °F 93% 29.96 in 7.0 mi NW 3.5 mph - N/A   Overcast
5:38 AM 46.4 °F - 44.6 °F 93% 29.96 in 7.0 mi Calm Calm - N/A   Overcast
5:53 AM 46.0 °F - 45.0 °F 96% 29.96 in 7.0 mi Calm Calm - N/A   Overcast
6:00 AM 46.4 °F - 44.6 °F 93% 29.96 in 7.0 mi Calm Calm - N/A   Overcast
6:31 AM 46.4 °F 44.3 °F 44.6 °F 93% 29.98 in 7.0 mi WNW 4.6 mph - N/A   Overcast
6:53 AM 46.4 °F 45.2 °F 44.6 °F 93% 29.99 in 8.0 mi NW 3.5 mph - N/A   Overcast
7:53 AM 46.9 °F - 46.0 °F 97% 30.02 in 7.0 mi WNW 5.8 mph - N/A   Overcast
8:19 AM 46.4 °F 44.3 °F 46.4 °F 100% 30.03 in 7.0 mi WNW 4.6 mph - N/A   Overcast
8:53 AM 48.0 °F - 46.0 °F 93% 30.02 in 8.0 mi Calm Calm - N/A   Overcast
9:53 AM 51.1 °F - 46.0 °F 83% 30.02 in 10.0 mi Calm Calm - N/A   Overcast
10:53 AM 51.8 °F - 46.4 °F 82% 30.03 in 10.0 mi Calm Calm - N/A   Overcast
11:53 AM 54.0 °F - 46.9 °F 77% 30.03 in 10.0 mi WNW 6.9 mph - N/A   Overcast
12:09 PM 53.6 °F - 48.2 °F 82% 30.04 in 10.0 mi WSW 8.1 mph - N/A   Overcast
12:53 PM 55.9 °F - 48.0 °F 75% 30.03 in 10.0 mi WNW 5.8 mph - N/A   Overcast
1:51 PM 59.0 °F - 48.2 °F 67% 30.00 in 10.0 mi West 6.9 mph - N/A   Mostly Cloudy
1:53 PM 59.0 °F - 48.0 °F 67% 30.00 in 10.0 mi Variable 5.8 mph - N/A   Scattered Clouds
2:53 PM 61.0 °F - 48.9 °F 64% 29.99 in 10.0 mi WSW 8.1 mph - N/A   Scattered Clouds
3:53 PM 62.1 °F - 48.9 °F 62% 29.99 in 10.0 mi WNW 15.0 mph 18.4 mph N/A   Mostly Cloudy
4:53 PM 61.0 °F - 48.9 °F 64% 30.00 in 10.0 mi WNW 10.4 mph - N/A   Overcast
5:53 PM 59.0 °F - 48.9 °F 69% 30.03 in 10.0 mi NW 9.2 mph - N/A   Unknown
6:37 PM 57.2 °F - 50.0 °F 77% 30.05 in 10.0 mi NW 6.9 mph - N/A   Mostly Cloudy
6:53 PM 57.0 °F - 48.9 °F 74% 30.05 in 10.0 mi NW 11.5 mph 18.4 mph N/A   Overcast
7:05 PM 55.4 °F - 48.2 °F 77% 30.06 in 10.0 mi NW 10.4 mph - N/A   Overcast
7:44 PM 55.4 °F - 48.2 °F 77% 30.08 in 10.0 mi NW 8.1 mph - N/A   Mostly Cloudy
7:53 PM 55.0 °F - 46.9 °F 74% 30.08 in 10.0 mi NW 8.1 mph - N/A   Mostly Cloudy
8:00 PM 53.6 °F - 46.4 °F 77% 30.08 in 10.0 mi NW 10.4 mph - N/A   Scattered Clouds
8:53 PM 52.0 °F - 46.0 °F 80% 30.10 in 10.0 mi NW 6.9 mph - N/A   Clear
9:53 PM 50.0 °F - 45.0 °F 83% 30.11 in 10.0 mi WNW 6.9 mph - N/A   Clear
10:53 PM 48.0 °F - 42.1 °F 80% 30.13 in 10.0 mi NW 8.1 mph - N/A   Clear
11:53 PM 46.0 °F 41.9 °F 39.9 °F 79% 30.14 in 10.0 mi NNW 8.1 mph - N/A   Clear